FW7308 Weather Reports


time (UTC)temp
C
wind
direction
speed
KPH
gust
KPH
rain 1hr
cm
rain 24hr
cm
rain mn
cm
humidity
%
barometer
mb
20260902205740 18 335 1.6 1.6 0.00 0.00 0.00 96 1023.1
20260902205239 18 325 1.6 3.2 0.00 0.00 0.00 96 1023.1
20260902204738 18 294 0.0 1.6 0.00 0.00 0.00 95 1022.9
20260902204239 18 329 0.0 1.6 0.00 0.00 0.00 97 1022.9
20260902203739 18 350 1.6 3.2 0.00 0.00 0.00 97 1022.8
20260902203238 18 332 0.0 1.6 0.00 0.00 0.00 96 1022.8
20260902202839 18 358 3.2 3.2 0.00 0.00 0.00 95 1022.8
20260902202238 18 320 1.6 3.2 0.00 0.00 0.00 95 1022.8
20260902201738 18 0.0 0.0 0.00 0.00 0.00 96 1022.8
20260902201237 18 348 3.2 3.2 0.00 0.00 0.00 95 1023.1
20260902200736 18 334 1.6 3.2 0.00 0.00 0.00 95 1023.1
20260902200237 18 355 3.2 4.8 0.00 0.00 0.00 94 1023.1
20260902195736 18 170 6.4 9.7 0.00 0.00 0.00 94 1023.1
20260902195235 18 156 6.4 8.0 0.00 0.00 0.00 94 1023.1
20260902194235 18 25 4.8 4.8 0.00 0.00 0.00 93 1023.5
20260902193735 18 138 8.0 9.7 0.00 0.00 0.00 92 1023.5
20260902193336 18 133 8.0 12.9 0.00 0.00 0.00 92 1023.5
20260902192733 19 145 11.3 16.1 0.00 0.00 0.00 91 1023.1
20260902192232 19 204 6.4 11.3 0.00 0.00 0.00 91 1023.1
20260902191733 18 156 8.0 12.9 0.00 0.00 0.00 93 1023.5
20260902191233 18 139 9.7 14.5 0.00 0.00 0.00 94 1023.8
20260902190731 18 151 8.0 12.9 0.00 0.00 0.00 93 1023.6
20260902190231 18 20 3.2 4.8 0.00 0.00 0.00 94 1023.8
20260902185732 18 161 4.8 8.0 0.00 0.00 0.00 93 1023.5
20260902185231 18 146 6.4 9.7 0.00 0.00 0.00 93 1023.8
20260902184730 18 42 4.8 4.8 0.00 0.00 0.00 93 1023.5
20260902184229 18 324 3.2 4.8 0.00 0.00 0.00 94 1023.8
20260902183731 18 255 4.8 4.8 0.00 0.00 0.00 95 1023.8
20260902183230 18 299 4.8 4.8 0.00 0.00 0.00 95 1023.8
20260902182729 17 352 3.2 4.8 0.00 0.00 0.00 94 1024.0
20260902182230 18 85 4.8 4.8 0.00 0.00 0.00 94 1024.0
20260902181729 18 172 8.0 11.3 0.00 0.00 0.00 93 1023.8
20260902181229 18 26 3.2 3.2 0.00 0.00 0.00 94 1023.8
20260902180728 18 182 6.4 9.7 0.00 0.00 0.00 93 1024.0
20260902180230 18 139 4.8 8.0 0.00 0.00 0.00 95 1023.8
20260902175728 18 352 1.6 4.8 0.00 0.00 0.00 94 1024.2
20260902175328 18 8 4.8 4.8 0.00 0.00 0.00 94 1023.8
20260902174229 18 151 6.4 9.7 0.00 0.00 0.00 94 1023.8
20260902173727 18 74 3.2 4.8 0.00 0.00 0.00 94 1023.8
20260902173226 18 258 4.8 4.8 0.00 0.00 0.00 95 1023.8
20260902172725 17 258 4.8 8.0 0.00 0.00 0.00 96 1023.8
20260902172225 17 164 11.3 12.9 0.00 0.00 0.00 95 1023.8
20260902171726 17 39 4.8 8.0 0.00 0.00 0.00 96 1024.2
20260902171225 17 270 4.8 4.8 0.00 0.00 0.00 96 1024.2
20260902170724 17 0 3.2 4.8 0.00 0.00 0.00 96 1024.2
20260902170224 17 89 6.4 8.0 0.00 0.00 0.00 96 1024.2
20260902164823 17 290 3.2 3.2 0.00 0.00 0.00 95 1024.2
20260902164242 17 6 3.2 3.2 0.00 0.00 0.00 95 1024.2
20260902162723 17 275 4.8 4.8 0.00 0.00 0.00 96 1024.2
20260902162221 17 342 4.8 4.8 0.00 0.00 0.00 96 1024.5
20260902161820 17 163 4.8 11.3 0.00 0.00 0.00 96 1024.3
20260902161223 17 267 3.2 4.8 0.00 0.00 0.00 96 1024.2
20260902160720 17 302 3.2 3.2 0.00 0.00 0.00 95 1024.5
20260902155719 17 196 8.0 9.7 0.00 0.00 0.00 95 1024.5
20260902155220 17 169 9.7 12.9 0.00 0.00 0.00 94 1024.5
20260902154720 17 109 6.4 8.0 0.00 0.00 0.00 95 1024.5
20260902154218 17 92 8.0 11.3 0.00 0.00 0.00 97 1024.5
20260902153722 17 153 9.7 11.3 0.00 0.00 0.00 96 1024.5
20260902153219 17 344 3.2 4.8 0.00 0.00 0.00 97 1024.9
20260902152759 17 330 0.0 1.6 0.00 0.00 0.00 97 1024.9
20260902142244 17 125 6.4 9.7 0.00 0.00 0.00 96 1025.0
20260902141744 17 200 9.7 11.3 0.00 0.00 0.00 96 1024.9
20260902141242 17 207 6.4 12.9 0.00 0.00 0.00 96 1024.9
20260902140713 17 187 8.0 9.7 0.00 0.00 0.00 94 1024.9
20260902140242 16 157 6.4 8.0 0.00 0.00 0.00 96 1024.5
20260902135240 16 338 3.2 4.8 0.00 0.00 0.00 98 1024.5
20260902134745 16 184 6.4 9.7 0.00 0.00 0.00 98 1024.5
20260902134342 16 324 1.6 3.2 0.00 0.00 0.00 99 1024.5
20260902133740 16 183 4.8 8.0 0.00 0.00 0.00 99 1024.5
20260902133239 16 284 4.8 4.8 0.00 0.00 0.00 99 1024.5
20260902132739 16 342 1.6 3.2 0.00 0.00 0.00 99 1024.5
20260902132240 16 305 1.6 1.6 0.00 0.00 0.00 99 1024.5
20260902131739 15 348 3.2 3.2 0.00 0.00 0.00 99 1024.2
20260902131239 15 12 4.8 4.8 0.00 0.00 0.00 99 1024.2
20260902130739 15 102 6.4 8.0 0.00 0.00 0.00 99 1024.2
20260902130238 15 350 4.8 4.8 0.00 0.00 0.00 99 1024.2
20260902125737 15 23 3.2 4.8 0.00 0.00 0.00 99 1024.2
20260902125236 15 299 4.8 4.8 0.00 0.00 0.00 99 1024.2
20260902124738 15 355 3.2 3.2 0.00 0.00 0.00 99 1024.2
20260902124237 15 343 1.6 3.2 0.00 0.00 0.00 99 1024.3
20260902123736 15 1 3.2 4.8 0.00 0.00 0.00 99 1024.2
20260902123235 15 307 1.6 3.2 0.00 0.00 0.00 99 1024.2
20260902122738 15 339 1.6 3.2 0.00 0.00 0.00 99 1024.2
20260902122236 15 352 1.6 1.6 0.00 0.00 0.00 99 1024.5
20260902121234 15 335 1.6 1.6 0.00 0.00 0.00 99 1024.2
20260902120735 15 0.0 0.0 0.00 0.00 0.00 99 1024.3
20260902120234 15 337 0.0 1.6 0.00 0.00 0.00 99 1024.2
20260902115834 15 358 1.6 3.2 0.00 0.00 0.00 99 1024.5
20260902115236 15 338 0.0 1.6 0.00 0.00 0.00 99 1024.3
20260902114733 15 0.0 0.0 0.00 0.00 0.00 99 1024.2
20260902114233 15 338 1.6 1.6 0.00 0.00 0.00 99 1024.5
20260902113833 15 348 1.6 3.2 0.00 0.00 0.00 99 1024.2
20260902112731 15 0.0 0.0 0.00 0.00 0.00 99 1024.5
20260902112233 15 0.0 0.0 0.00 0.00 0.00 99 1024.5
20260902111731 15 0.0 0.0 0.00 0.00 0.00 99 1024.5
20260902102226 14 0.0 0.0 0.00 0.00 0.00 99 1024.2
20260902101226 14 0.0 0.0 0.00 0.00 0.00 99 1023.8
20260902100727 14 0.0 0.0 0.00 0.00 0.00 99 1024.2
20260902100329 14 0.0 0.0 0.00 0.00 0.00 99 1024.2
20260902095826 14 0.0 0.0 0.00 0.00 0.00 99 1023.8
20260902095325 14 0.0 0.0 0.00 0.00 0.00 99 1023.8
20260902094724 14 0.0 0.0 0.00 0.00 0.00 99 1023.8
20260902094227 14 0.0 0.0 0.00 0.00 0.00 99 1023.8
20260902093727 14 0.0 0.0 0.00 0.00 0.00 99 1024.0
20260902092224 14 0.0 0.0 0.00 0.00 0.00 99 1023.8
20260902091725 14 0.0 0.0 0.00 0.00 0.00 99 1023.8
20260902091223 14 0.0 0.0 0.00 0.00 0.00 99 1023.8
20260902090722 14 0.0 0.0 0.00 0.00 0.00 99 1023.8
20260902080217 14 332 0.0 1.6 0.00 0.00 0.00 99 1023.5
20260902075717 14 342 1.6 3.2 0.00 0.00 0.00 99 1023.5
20260902075218 15 335 0.0 1.6 0.00 0.00 0.00 99 1023.5
20260902074717 15 324 0.0 1.6 0.00 0.00 0.00 99 1023.1
20260902074216 15 339 1.6 1.6 0.00 0.00 0.00 99 1023.5
20260902073745 15 0.0 0.0 0.00 0.00 0.00 99 1023.5
20260902073246 15 337 0.0 1.6 0.00 0.00 0.00 99 1023.5
20260902072745 15 336 0.0 1.6 0.00 0.00 0.00 99 1023.5
20260902072244 14 338 0.0 1.6 0.00 0.00 0.00 99 1023.5
20260902071744 14 0.0 0.0 0.00 0.00 0.00 99 1023.1
20260902071245 14 0.0 0.0 0.00 0.00 0.00 99 1023.5
20260902070744 14 0.0 0.0 0.00 0.00 0.00 99 1023.5
20260902070345 14 0.0 0.0 0.00 0.00 0.00 99 1023.5
20260902065743 15 336 0.0 1.6 0.00 0.00 0.00 99 1023.5
20260902065245 15 341 0.0 1.6 0.00 0.00 0.00 99 1023.8
20260902064844 15 0.0 0.0 0.00 0.00 0.00 99 1023.8
20260902064242 15 322 0.0 1.6 0.00 0.00 0.00 99 1023.8
20260902063741 15 0.0 0.0 0.00 0.00 0.00 99 1023.8
20260902062742 15 0.0 0.0 0.00 0.00 0.00 99 1023.8
20260902061740 15 0.0 0.0 0.00 0.00 0.00 99 1023.5
20260902061241 15 0.0 0.0 0.00 0.00 0.00 99 1023.5
20260902060240 15 0.0 0.0 0.00 0.00 0.00 99 1023.5
20260902055739 15 0.0 0.0 0.00 0.00 0.00 99 1023.1
20260902044735 15 0.0 0.0 0.00 0.00 0.00 99 1022.8
20260902044235 15 0.0 0.0 0.00 0.00 0.00 99 1022.8
20260902043734 15 0.0 0.0 0.00 0.00 0.00 99 1022.4
20260902043235 15 333 0.0 1.6 0.00 0.00 0.00 99 1022.4
20260902042735 15 0.0 0.0 0.00 0.00 0.00 99 1022.4
20260902042235 15 312 0.0 1.6 0.00 0.00 0.00 99 1022.4
20260902041733 15 0.0 0.0 0.00 0.00 0.00 99 1022.4
20260902041232 15 0.0 0.0 0.00 0.00 0.00 99 1022.1
20260902040733 15 0.0 0.0 0.00 0.00 0.00 99 1022.1
20260902040232 15 0.0 0.0 0.00 0.00 0.00 99 1022.4
20260902035733 15 0.0 0.0 0.00 0.00 1.24 99 1022.2
20260902035232 15 0.0 0.0 0.00 0.00 1.24 99 1022.4
20260902034731 15 0.0 0.0 0.00 0.00 1.24 99 1022.2
20260902034231 15 0.0 0.0 0.00 0.00 1.24 99 1022.2
20260902033731 15 0.0 0.0 0.00 0.00 1.24 99 1022.1
20260902032730 15 0.0 0.0 0.00 0.00 1.24 99 1022.2
20260902032230 15 0.0 0.0 0.00 0.00 1.24 99 1022.4
20260902031730 15 0.0 0.0 0.00 0.00 1.24 99 1022.4
20260902031228 15 0.0 0.0 0.00 0.00 1.24 99 1022.4
20260902030728 15 0.0 0.0 0.00 0.00 1.24 99 1022.1
20260902030329 15 321 0.0 1.6 0.00 0.00 1.24 99 1022.4
20260902025731 15 0.0 0.0 0.00 0.00 1.24 99 1022.4
20260902025226 15 336 0.0 1.6 0.00 0.00 1.24 99 1022.4
20260902024726 15 336 0.0 1.6 0.00 0.00 1.24 99 1022.4
20260902024330 15 336 0.0 1.6 0.00 0.00 1.24 99 1022.2
20260902023727 15 343 1.6 3.2 0.00 0.00 1.24 99 1022.1
20260902023327 15 343 1.6 3.2 0.00 0.00 1.24 99 1021.7
20260902022726 15 1 3.2 4.8 0.00 0.00 1.24 99 1021.9
20260902022227 15 345 1.6 3.2 0.00 0.00 1.24 99 1022.1
20260902021725 15 7 4.8 8.0 0.00 0.00 1.24 99 1022.1
20260902021226 15 350 1.6 3.2 0.00 0.00 1.24 99 1022.1
20260902020723 15 78 4.8 8.0 0.00 0.00 1.24 99 1022.1
20260902020225 15 146 6.4 8.0 0.00 0.00 1.24 99 1021.7
20260902015723 15 136 6.4 9.7 0.00 0.00 1.24 99 1022.1
20260902015323 15 349 3.2 3.2 0.00 0.00 1.24 99 1022.1
20260902014827 15 287 4.8 8.0 0.00 0.00 1.24 99 1022.1
20260902014223 15 349 1.6 3.2 0.00 0.00 1.24 99 1022.1
20260902013723 15 66 3.2 8.0 0.00 0.00 1.24 99 1022.2
20260902013221 15 235 4.8 8.0 0.00 0.00 1.24 99 1022.2
20260902012722 15 12 4.8 4.8 0.00 0.00 1.24 99 1022.1
20260902012222 15 357 3.2 3.2 0.00 0.00 1.24 99 1022.1
20260902011721 15 30 3.2 4.8 0.00 0.00 1.24 99 1022.1
20260902011220 16 27 4.8 8.0 0.00 0.00 1.24 99 1022.1
20260902010721 16 2 3.2 4.8 0.00 0.00 1.24 99 1022.1
20260902010220 16 328 1.6 3.2 0.00 0.00 1.24 99 1022.1
20260902005719 16 29 3.2 4.8 0.00 0.00 1.24 99 1021.7
20260902005218 16 303 4.8 4.8 0.00 0.00 1.22 99 1021.7
20260902004720 16 343 1.6 1.6 0.00 0.00 1.22 99 1022.1
20260902004320 16 325 3.2 3.2 0.00 0.00 1.22 99 1021.7
20260902003818 16 311 3.2 3.2 0.00 0.00 1.22 99 1021.7
20260902003217 16 237 6.4 8.0 0.00 0.00 1.22 99 1021.5
20260902002716 16 347 3.2 3.2 0.00 0.00 1.22 99 1021.4
20260902002220 16 306 1.6 3.2 0.00 0.00 1.22 99 1021.4
20260902001757 16 350 1.6 3.2 0.00 0.00 1.19 99 1021.2
20260901231243 16 0.0 0.0 0.00 0.00 1.19 99 1021.0
20260901230742 16 0.0 0.0 0.00 0.00 1.19 99 1021.0
20260901230242 16 313 1.6 3.2 0.00 0.00 1.19 99 1021.0
20260901225841 16 319 0.0 1.6 0.00 0.00 1.19 99 1021.0
20260901225241 16 325 1.6 1.6 0.00 0.00 1.19 99 1021.0
20260901224741 16 320 0.0 1.6 0.00 0.00 1.19 99 1021.0
20260901223239 16 329 1.6 1.6 0.00 0.00 1.19 99 1021.0
20260901222240 16 301 3.2 3.2 0.00 0.00 1.19 99 1021.2
20260901221739 16 317 1.6 3.2 0.00 0.00 1.19 99 1021.0
20260901221238 16 309 1.6 3.2 0.00 0.00 1.19 99 1021.0
20260901220240 16 0.0 0.0 0.00 0.00 1.19 99 1020.7
20260901215738 16 294 3.2 3.2 0.00 0.00 1.19 99 1020.7
20260901215237 16 327 1.6 1.6 0.00 0.00 1.17 99 1020.7
20260901214736 16 304 3.2 3.2 0.00 0.00 1.17 99 1020.7
20260901214237 16 338 1.6 1.6 0.00 0.00 1.17 99 1020.7
20260901213736 16 310 1.6 3.2 0.00 0.00 1.17 99 1020.7
20260901213235 16 332 0.0 1.6 0.00 0.00 1.17 99 1020.7
20260901212735 16 324 0.0 1.6 0.00 0.00 1.17 99 1020.7
20260901212236 16 314 1.6 3.2 0.00 0.00 1.17 99 1020.7
20260901211735 16 323 1.6 1.6 0.00 0.00 1.17 99 1020.7
20260901211234 16 305 1.6 3.2 0.00 0.00 1.17 99 1020.7
20260901210733 16 0.0 0.0 0.00 0.00 1.17 99 1020.3
20260901210233 16 341 1.6 3.2 0.00 0.00 1.17 99 1020.7